| time (UTC) | temp C | wind direction | speed KPH | gust KPH | rain 1hr cm | rain 24hr cm | rain mn cm | humidity % | barometer mb |
| 20260504150659 | 20 | 178 | 1.6 | 4.8 | 0.00 | 0.00 | 0.00 | 50 | 1013.7 |
| 20260504150155 | 19 | 187 | 1.6 | 1.6 | 0.00 | 0.00 | 0.00 | 52 | 1013.8 |
| 20260504141124 | 18 | 207 | 3.2 | 9.7 | 0.00 | 0.00 | 0.00 | 53 | 1014.2 |
| 20260504140621 | 18 | 195 | 1.6 | 4.8 | 0.00 | 0.00 | 0.00 | 56 | 1014.1 |
| 20260504140117 | 17 | 199 | 4.8 | 8.0 | 0.00 | 0.00 | 0.00 | 53 | 1014.1 |
| 20260504130545 | 17 | 68 | 4.8 | 9.7 | 0.00 | 0.00 | 0.00 | 58 | 1014.7 |
| 20260504110433 | 6 | 196 | 0.0 | 0.0 | 0.00 | 0.00 | 0.00 | 91 | 1015.7 |
| 20260504100349 | 3 | 199 | 0.0 | 0.0 | 0.00 | 0.00 | 0.00 | 93 | 1015.7 |
| 20260504081742 | 5 | 198 | 0.0 | 0.0 | 0.00 | 0.00 | 0.00 | 88 | 1015.6 |
| 20260504081239 | 5 | 198 | 0.0 | 0.0 | 0.00 | 0.00 | 0.00 | 88 | 1015.5 |
| 20260504080735 | 5 | 198 | 0.0 | 0.0 | 0.00 | 0.00 | 0.00 | 88 | 1015.4 |
| 20260504080232 | 5 | 198 | 0.0 | 0.0 | 0.00 | 0.00 | 0.00 | 88 | 1015.2 |
| 20260504070200 | 5 | 192 | 0.0 | 0.0 | 0.00 | 0.00 | 0.00 | 87 | 1015.1 |
| 20260504060120 | 5 | 192 | 0.0 | 0.0 | 0.00 | 0.00 | 0.00 | 82 | 1014.6 |
| 20260504050548 | 5 | 191 | 0.0 | 0.0 | 0.00 | 0.00 | 0.00 | 79 | 1014.8 |
| 20260504045542 | 5 | 191 | 0.0 | 0.0 | 0.00 | 0.00 | 0.00 | 79 | 1014.8 |
| 20260504045037 | 5 | 191 | 0.0 | 0.0 | 0.00 | 0.00 | 0.00 | 79 | 1014.6 |
| 20260504044535 | 5 | 191 | 0.0 | 0.0 | 0.00 | 0.00 | 0.00 | 79 | 1014.4 |
| 20260504044032 | 5 | 191 | 0.0 | 0.0 | 0.00 | 0.00 | 0.00 | 76 | 1014.7 |
| 20260504043529 | 5 | 191 | 0.0 | 0.0 | 0.00 | 0.00 | 0.00 | 76 | 1014.8 |
| 20260504043026 | 5 | 191 | 0.0 | 0.0 | 0.00 | 0.00 | 0.00 | 76 | 1014.6 |
| 20260504042523 | 5 | 191 | 0.0 | 0.0 | 0.00 | 0.00 | 0.00 | 76 | 1014.7 |
| 20260504042020 | 5 | 191 | 0.0 | 0.0 | 0.00 | 0.00 | 0.00 | 76 | 1014.7 |
| 20260504041516 | 5 | 191 | 0.0 | 0.0 | 0.00 | 0.00 | 0.00 | 76 | 1014.5 |
| 20260504041012 | 5 | 191 | 0.0 | 0.0 | 0.00 | 0.00 | 0.00 | 75 | 1014.5 |
| 20260504040510 | 5 | 191 | 0.0 | 0.0 | 0.00 | 0.00 | 0.00 | 75 | 1014.7 |
| 20260504040006 | 5 | 191 | 0.0 | 1.6 | 0.00 | 0.00 | 0.00 | 75 | 1014.5 |
| 20260504035503 | 5 | 191 | 0.0 | 0.0 | 0.00 | 0.00 | 0.00 | 75 | 1014.6 |
| 20260504034959 | 5 | 191 | 0.0 | 0.0 | 0.00 | 0.00 | 0.00 | 75 | 1014.7 |
| 20260504034457 | 5 | 191 | 0.0 | 0.0 | 0.00 | 0.00 | 0.00 | 75 | 1014.3 |
| 20260504033954 | 5 | 191 | 0.0 | 0.0 | 0.00 | 0.00 | 0.00 | 75 | 1014.5 |
| 20260504033452 | 5 | 191 | 0.0 | 0.0 | 0.00 | 0.00 | 0.00 | 75 | 1014.1 |
| 20260504032949 | 5 | 191 | 0.0 | 0.0 | 0.00 | 0.00 | 0.00 | 75 | 1014.3 |
| 20260504032446 | 5 | 191 | 0.0 | 0.0 | 0.00 | 0.00 | 0.00 | 75 | 1014.3 |
| 20260504031942 | 5 | 191 | 0.0 | 0.0 | 0.00 | 0.00 | 0.00 | 75 | 1014.3 |
| 20260504031439 | 5 | 191 | 0.0 | 0.0 | 0.00 | 0.00 | 0.00 | 75 | 1014.2 |
| 20260504030936 | 5 | 191 | 0.0 | 0.0 | 0.00 | 0.00 | 0.00 | 74 | 1014.1 |
| 20260504030433 | 6 | 191 | 0.0 | 0.0 | 0.00 | 0.00 | 0.00 | 74 | 1014.4 |
| 20260504025929 | 6 | 191 | 0.0 | 0.0 | 0.00 | 0.00 | 0.00 | 74 | 1014.2 |
| 20260504025426 | 6 | 191 | 0.0 | 0.0 | 0.00 | 0.00 | 0.00 | 74 | 1014.2 |
| 20260504024923 | 6 | 191 | 0.0 | 0.0 | 0.00 | 0.00 | 0.00 | 74 | 1014.3 |
| 20260504024420 | 6 | 191 | 0.0 | 0.0 | 0.00 | 0.00 | 0.00 | 74 | 1014.4 |
| 20260504023917 | 6 | 191 | 0.0 | 0.0 | 0.00 | 0.00 | 0.00 | 73 | 1014.3 |
| 20260504023413 | 6 | 191 | 0.0 | 0.0 | 0.00 | 0.00 | 0.00 | 71 | 1014.2 |
| 20260504022909 | 6 | 191 | 0.0 | 0.0 | 0.00 | 0.00 | 0.00 | 72 | 1014.2 |
| 20260504022406 | 6 | 191 | 0.0 | 0.0 | 0.00 | 0.00 | 0.00 | 71 | 1014.2 |
| 20260504021902 | 6 | 191 | 0.0 | 0.0 | 0.00 | 0.00 | 0.00 | 70 | 1014.0 |
| 20260504021400 | 6 | 191 | 0.0 | 0.0 | 0.00 | 0.00 | 0.00 | 70 | 1014.1 |
| 20260504020857 | 6 | 191 | 0.0 | 0.0 | 0.00 | 0.00 | 0.00 | 69 | 1014.2 |
| 20260504020353 | 6 | 191 | 0.0 | 0.0 | 0.00 | 0.00 | 0.00 | 70 | 1014.3 |
| 20260504015849 | 6 | 191 | 0.0 | 0.0 | 0.00 | 0.00 | 0.00 | 68 | 1014.2 |
| 20260504015346 | 6 | 191 | 0.0 | 0.0 | 0.00 | 0.00 | 0.00 | 68 | 1014.3 |
| 20260504014842 | 6 | 191 | 0.0 | 0.0 | 0.00 | 0.00 | 0.00 | 68 | 1014.1 |
| 20260504014338 | 7 | 191 | 0.0 | 0.0 | 0.00 | 0.00 | 0.00 | 67 | 1014.2 |
| 20260504013836 | 7 | 191 | 0.0 | 0.0 | 0.00 | 0.00 | 0.00 | 64 | 1014.1 |
| 20260504013333 | 7 | 191 | 0.0 | 0.0 | 0.00 | 0.00 | 0.00 | 64 | 1014.1 |
| 20260504012830 | 7 | 191 | 0.0 | 0.0 | 0.00 | 0.00 | 0.00 | 64 | 1014.1 |
| 20260504012328 | 7 | 191 | 0.0 | 0.0 | 0.00 | 0.00 | 0.00 | 62 | 1014.0 |
| 20260504011825 | 7 | 191 | 0.0 | 0.0 | 0.00 | 0.00 | 0.00 | 62 | 1013.9 |
| 20260504011321 | 7 | 191 | 0.0 | 0.0 | 0.00 | 0.00 | 0.00 | 62 | 1013.9 |
| 20260504010817 | 7 | 191 | 0.0 | 0.0 | 0.00 | 0.00 | 0.00 | 61 | 1013.6 |
| 20260504010313 | 7 | 191 | 0.0 | 0.0 | 0.00 | 0.00 | 0.00 | 65 | 1013.6 |
| 20260504005810 | 8 | 191 | 0.0 | 0.0 | 0.00 | 0.00 | 0.00 | 64 | 1013.5 |
| 20260504005307 | 8 | 191 | 0.0 | 0.0 | 0.00 | 0.00 | 0.00 | 60 | 1013.3 |
| 20260504004804 | 8 | 191 | 0.0 | 0.0 | 0.00 | 0.00 | 0.00 | 60 | 1013.4 |
| 20260504004302 | 8 | 191 | 0.0 | 0.0 | 0.00 | 0.00 | 0.00 | 60 | 1013.2 |
| 20260504003758 | 8 | 191 | 0.0 | 0.0 | 0.00 | 0.00 | 0.00 | 60 | 1013.2 |
| 20260504003255 | 9 | 191 | 0.0 | 0.0 | 0.00 | 0.00 | 0.00 | 59 | 1013.1 |
| 20260504002751 | 9 | 191 | 0.0 | 0.0 | 0.00 | 0.00 | 0.00 | 58 | 1013.2 |
| 20260504002249 | 10 | 191 | 0.0 | 0.0 | 0.00 | 0.00 | 0.00 | 58 | 1013.1 |
| 20260504001746 | 10 | 191 | 0.0 | 0.0 | 0.00 | 0.00 | 0.00 | 54 | 1013.0 |
| 20260504001243 | 10 | 191 | 0.0 | 0.0 | 0.00 | 0.00 | 0.00 | 54 | 1012.9 |
| 20260504000740 | 10 | 191 | 0.0 | 0.0 | 0.00 | 0.00 | 0.00 | 53 | 1012.9 |
| 20260504000237 | 11 | 191 | 0.0 | 0.0 | 0.00 | 0.00 | 0.00 | 53 | 1012.9 |
| 20260503235735 | 11 | 191 | 0.0 | 0.0 | 0.00 | 0.00 | 0.00 | 50 | 1013.0 |
| 20260503235232 | 11 | 197 | 0.0 | 1.6 | 0.00 | 0.00 | 0.00 | 50 | 1013.0 |
| 20260503234730 | 12 | 190 | 0.0 | 0.0 | 0.00 | 0.00 | 0.00 | 45 | 1012.8 |
| 20260503234227 | 12 | 190 | 0.0 | 0.0 | 0.00 | 0.00 | 0.00 | 45 | 1012.6 |
| 20260503233725 | 13 | 187 | 0.0 | 0.0 | 0.00 | 0.00 | 0.00 | 43 | 1012.7 |
| 20260503233220 | 13 | 187 | 0.0 | 0.0 | 0.00 | 0.00 | 0.00 | 43 | 1012.5 |
| 20260503232717 | 13 | 187 | 0.0 | 0.0 | 0.00 | 0.00 | 0.00 | 43 | 1012.7 |
| 20260503232214 | 13 | 179 | 3.2 | 3.2 | 0.00 | 0.00 | 0.00 | 42 | 1012.6 |
| 20260503231713 | 13 | 194 | 0.0 | 0.0 | 0.00 | 0.00 | 0.00 | 41 | 1012.5 |
| 20260503231209 | 13 | 208 | 3.2 | 3.2 | 0.00 | 0.00 | 0.00 | 42 | 1012.5 |
| 20260503230705 | 13 | 202 | 0.0 | 1.6 | 0.00 | 0.00 | 0.00 | 43 | 1012.4 |
| 20260503230202 | 13 | 197 | 0.0 | 0.0 | 0.00 | 0.00 | 0.00 | 43 | 1012.4 |
| 20260503225659 | 13 | 192 | 1.6 | 3.2 | 0.00 | 0.00 | 0.00 | 42 | 1012.5 |
| 20260503225154 | 14 | 189 | 0.0 | 0.0 | 0.00 | 0.00 | 0.00 | 41 | 1012.4 |
| 20260503224652 | 14 | 196 | 1.6 | 1.6 | 0.00 | 0.00 | 0.00 | 38 | 1012.4 |
| 20260503224149 | 14 | 202 | 1.6 | 3.2 | 0.00 | 0.00 | 0.00 | 39 | 1012.5 |
| 20260503223647 | 15 | 199 | 1.6 | 3.2 | 0.00 | 0.00 | 0.00 | 39 | 1012.5 |
| 20260503223143 | 14 | 195 | 1.6 | 3.2 | 0.00 | 0.00 | 0.00 | 39 | 1012.4 |
| 20260503222640 | 15 | 191 | 0.0 | 1.6 | 0.00 | 0.00 | 0.00 | 39 | 1012.6 |
| 20260503222138 | 15 | 200 | 9.7 | 16.1 | 0.00 | 0.00 | 0.00 | 38 | 1012.3 |
| 20260503221636 | 15 | 199 | 1.6 | 4.8 | 0.00 | 0.00 | 0.00 | 38 | 1012.4 |
| 20260503221133 | 15 | 200 | 0.0 | 3.2 | 0.00 | 0.00 | 0.00 | 37 | 1012.6 |
| 20260503220630 | 15 | 199 | 0.0 | 1.6 | 0.00 | 0.00 | 0.00 | 37 | 1012.4 |
| 20260503220127 | 15 | 206 | 1.6 | 3.2 | 0.00 | 0.00 | 0.00 | 37 | 1012.4 |
| 20260503215624 | 15 | 201 | 1.6 | 4.8 | 0.00 | 0.00 | 0.00 | 37 | 1012.3 |
| 20260503215120 | 15 | 193 | 3.2 | 3.2 | 0.00 | 0.00 | 0.00 | 36 | 1012.4 |
| 20260503214619 | 15 | 189 | 1.6 | 3.2 | 0.00 | 0.00 | 0.00 | 36 | 1012.3 |
| 20260503214115 | 16 | 203 | 3.2 | 4.8 | 0.00 | 0.00 | 0.00 | 35 | 1012.3 |
| 20260503213614 | 16 | 202 | 3.2 | 8.0 | 0.00 | 0.00 | 0.00 | 35 | 1012.1 |
| 20260503213110 | 16 | 195 | 1.6 | 1.6 | 0.00 | 0.00 | 0.00 | 34 | 1011.9 |
| 20260503212608 | 16 | 202 | 3.2 | 12.9 | 0.00 | 0.00 | 0.00 | 35 | 1012.1 |
| 20260503212105 | 16 | 195 | 4.8 | 4.8 | 0.00 | 0.00 | 0.00 | 34 | 1012.1 |
| 20260503211603 | 17 | 243 | 8.0 | 9.7 | 0.00 | 0.00 | 0.00 | 34 | 1012.0 |
| 20260503211057 | 16 | 200 | 3.2 | 4.8 | 0.00 | 0.00 | 0.00 | 34 | 1012.2 |
| 20260503210554 | 16 | 230 | 6.4 | 9.7 | 0.00 | 0.00 | 0.00 | 33 | 1012.2 |
| 20260503210050 | 17 | 201 | 1.6 | 3.2 | 0.00 | 0.00 | 0.00 | 34 | 1012.1 |
| 20260503205547 | 17 | 195 | 4.8 | 4.8 | 0.00 | 0.00 | 0.00 | 33 | 1012.2 |
| 20260503205044 | 17 | 203 | 1.6 | 9.7 | 0.00 | 0.00 | 0.00 | 35 | 1012.1 |
| 20260503204541 | 17 | 224 | 3.2 | 4.8 | 0.00 | 0.00 | 0.00 | 35 | 1012.2 |
| 20260503204038 | 17 | 169 | 3.2 | 4.8 | 0.00 | 0.00 | 0.00 | 34 | 1012.2 |
| 20260503203535 | 16 | 118 | 3.2 | 11.3 | 0.00 | 0.00 | 0.00 | 33 | 1012.4 |
| 20260503203032 | 16 | 198 | 1.6 | 8.0 | 0.00 | 0.00 | 0.00 | 33 | 1012.2 |
| 20260503202530 | 17 | 209 | 4.8 | 4.8 | 0.00 | 0.00 | 0.00 | 33 | 1012.3 |
| 20260503202027 | 16 | 196 | 3.2 | 3.2 | 0.00 | 0.00 | 0.00 | 33 | 1012.4 |
| 20260503201525 | 17 | 207 | 3.2 | 8.0 | 0.00 | 0.00 | 0.00 | 33 | 1012.2 |
| 20260503201022 | 17 | 181 | 9.7 | 14.5 | 0.00 | 0.00 | 0.00 | 33 | 1012.2 |
| 20260503200518 | 17 | 198 | 3.2 | 4.8 | 0.00 | 0.00 | 0.00 | 34 | 1012.1 |
| 20260503200015 | 17 | 173 | 1.6 | 3.2 | 0.00 | 0.00 | 0.00 | 36 | 1012.0 |
| 20260503195513 | 16 | 267 | 6.4 | 8.0 | 0.00 | 0.00 | 0.00 | 34 | 1012.2 |
| 20260503195009 | 16 | 115 | 1.6 | 3.2 | 0.00 | 0.00 | 0.00 | 33 | 1012.2 |
| 20260503194507 | 16 | 198 | 3.2 | 8.0 | 0.00 | 0.00 | 0.00 | 34 | 1012.3 |
| 20260503194006 | 16 | 217 | 4.8 | 8.0 | 0.00 | 0.00 | 0.00 | 34 | 1012.4 |
| 20260503193503 | 16 | 221 | 3.2 | 12.9 | 0.00 | 0.00 | 0.00 | 33 | 1012.3 |
| 20260503192958 | 16 | 199 | 3.2 | 9.7 | 0.00 | 0.00 | 0.00 | 34 | 1012.3 |
| 20260503192455 | 16 | 195 | 8.0 | 22.5 | 0.00 | 0.00 | 0.00 | 35 | 1012.5 |
| 20260503191950 | 17 | 231 | 3.2 | 4.8 | 0.00 | 0.00 | 0.00 | 34 | 1012.4 |
| 20260503191448 | 16 | 218 | 8.0 | 11.3 | 0.00 | 0.00 | 0.00 | 35 | 1012.2 |
| 20260503190944 | 15 | 208 | 4.8 | 12.9 | 0.00 | 0.00 | 0.00 | 36 | 1012.6 |
| 20260503190442 | 16 | 228 | 4.8 | 14.5 | 0.00 | 0.00 | 0.00 | 37 | 1012.4 |
| 20260503185938 | 16 | 246 | 6.4 | 9.7 | 0.00 | 0.00 | 0.00 | 35 | 1012.8 |
| 20260503185435 | 16 | 192 | 0.0 | 3.2 | 0.00 | 0.00 | 0.00 | 36 | 1012.6 |
| 20260503184934 | 16 | 206 | 3.2 | 4.8 | 0.00 | 0.00 | 0.00 | 38 | 1012.6 |
| 20260503184431 | 16 | 202 | 1.6 | 9.7 | 0.00 | 0.00 | 0.00 | 37 | 1012.6 |
| 20260503183927 | 16 | 199 | 6.4 | 9.7 | 0.00 | 0.00 | 0.00 | 37 | 1013.0 |
| 20260503183424 | 15 | 212 | 1.6 | 4.8 | 0.00 | 0.00 | 0.00 | 38 | 1013.0 |
| 20260503182921 | 15 | 239 | 4.8 | 11.3 | 0.00 | 0.00 | 0.00 | 38 | 1012.9 |
| 20260503182420 | 15 | 198 | 0.0 | 4.8 | 0.00 | 0.00 | 0.00 | 40 | 1012.8 |
| 20260503181917 | 15 | 205 | 3.2 | 4.8 | 0.00 | 0.00 | 0.00 | 40 | 1012.9 |
| 20260503181414 | 14 | 202 | 3.2 | 8.0 | 0.00 | 0.00 | 0.00 | 41 | 1013.2 |
| 20260503180910 | 15 | 199 | 1.6 | 11.3 | 0.00 | 0.00 | 0.00 | 41 | 1013.2 |
| 20260503180408 | 15 | 200 | 0.0 | 3.2 | 0.00 | 0.00 | 0.00 | 41 | 1012.9 |
| 20260503175904 | 14 | 216 | 4.8 | 4.8 | 0.00 | 0.00 | 0.00 | 41 | 1012.8 |
| 20260503175403 | 15 | 247 | 4.8 | 9.7 | 0.00 | 0.00 | 0.00 | 40 | 1013.2 |
| 20260503174858 | 15 | 207 | 3.2 | 8.0 | 0.00 | 0.00 | 0.00 | 41 | 1012.9 |
| 20260503174356 | 14 | 233 | 4.8 | 8.0 | 0.00 | 0.00 | 0.00 | 42 | 1012.8 |
| 20260503173851 | 13 | 238 | 1.6 | 9.7 | 0.00 | 0.00 | 0.00 | 41 | 1012.8 |
| 20260503173348 | 15 | 190 | 4.8 | 8.0 | 0.00 | 0.00 | 0.00 | 40 | 1013.0 |
| 20260503172844 | 14 | 198 | 1.6 | 4.8 | 0.00 | 0.00 | 0.00 | 45 | 1012.8 |
| 20260503172342 | 14 | 200 | 3.2 | 4.8 | 0.00 | 0.00 | 0.00 | 42 | 1013.1 |
| 20260503171838 | 15 | 207 | 4.8 | 8.0 | 0.00 | 0.00 | 0.00 | 41 | 1013.2 |
| 20260503171335 | 15 | 197 | 1.6 | 3.2 | 0.00 | 0.00 | 0.00 | 42 | 1013.0 |
| 20260503170832 | 13 | 327 | 6.4 | 8.0 | 0.00 | 0.00 | 0.00 | 39 | 1013.1 |
| 20260503170328 | 13 | 221 | 1.6 | 4.8 | 0.00 | 0.00 | 0.00 | 44 | 1013.2 |